FW4443 Weather Reports


time (UTC)temp
F
wind
direction
speed
knots
gust
knots
rain 1hr
in
rain 24hr
in
rain mn
in
humidity
%
barometer
mb
20260506185918 79 111 0.9 8.7 0.00 0.00 0.00 25 1017.4
20260506185556 79 282 1.7 8.7 0.00 0.00 0.00 25 1017.4
20260506185239 79 111 2.6 8.7 0.00 0.00 0.00 24 1017.5
20260506184916 79 155 3.5 8.7 0.00 0.00 0.00 28 1017.5
20260506184557 79 183 3.5 8.7 0.00 0.00 0.00 24 1017.5
20260506184242 80 152 3.5 8.7 0.00 0.00 0.00 24 1017.6
20260506183926 81 157 3.5 8.7 0.00 0.00 0.00 26 1017.5
20260506183606 80 122 2.6 7.8 0.00 0.00 0.00 24 1017.5
20260506183239 78 167 2.6 6.1 0.00 0.00 0.00 25 1017.6
20260506182613 79 121 2.6 6.1 0.00 0.00 0.00 25 1017.5
20260506182253 78 133 1.7 6.1 0.00 0.00 0.00 27 1017.5
20260506181932 78 209 1.7 6.1 0.00 0.00 0.00 24 1017.6
20260506181307 79 105 2.6 6.1 0.00 0.00 0.00 25 1017.6
20260506180949 79 57 2.6 7.0 0.00 0.00 0.00 27 1017.6
20260506180628 79 30 2.6 7.0 0.00 0.00 0.00 26 1017.6
20260506180310 78 156 1.7 7.0 0.00 0.00 0.00 26 1017.6
20260506175952 77 147 2.6 7.0 0.00 0.00 0.00 25 1017.6
20260506175633 77 121 2.6 7.0 0.00 0.00 0.00 26 1017.5
20260506175307 78 153 2.6 7.0 0.00 0.00 0.00 26 1017.6
20260506174645 78 13 1.7 5.2 0.00 0.00 0.00 28 1017.6
20260506174020 77 65 0.9 5.2 0.00 0.00 0.00 29 1017.6
20260506173658 78 118 0.9 5.2 0.00 0.00 0.00 27 1017.6
20260506173043 77 105 1.7 5.2 0.00 0.00 0.00 28 1017.6
20260506172727 77 82 1.7 5.2 0.00 0.00 0.00 28 1017.6
20260506172408 76 20 1.7 5.2 0.00 0.00 0.00 29 1017.7
20260506172047 76 151 0.9 4.3 0.00 0.00 0.00 29 1017.6
20260506171723 76 77 0.9 6.1 0.00 0.00 0.00 27 1017.6
20260506171357 75 38 1.7 6.1 0.00 0.00 0.00 27 1017.6
20260506171036 76 36 1.7 6.1 0.00 0.00 0.00 28 1017.6
20260506170719 76 113 1.7 6.1 0.00 0.00 0.00 27 1017.5
20260506165754 74 94 0.9 5.2 0.00 0.00 0.00 28 1017.5
20260506165440 75 165 0.9 5.2 0.00 0.00 0.00 28 1017.6
20260506165118 75 75 0.9 4.3 0.00 0.00 0.00 31 1017.5
20260506164500 74 113 0.9 4.3 0.00 0.00 0.00 28 1017.5
20260506163842 74 259 1.7 4.3 0.00 0.00 0.00 27 1017.5
20260506163526 74 300 0.9 4.3 0.00 0.00 0.00 28 1017.5
20260506163210 74 21 0.9 4.3 0.00 0.00 0.00 28 1017.4
20260506162851 73 69 0.9 4.3 0.00 0.00 0.00 30 1017.4
20260506162536 73 80 0.9 4.3 0.00 0.00 0.00 29 1017.4
20260506162218 72 42 0.9 2.6 0.00 0.00 0.00 30 1017.4
20260506160700 72 355 0.0 4.3 0.00 0.00 0.00 32 1017.4
20260506160335 71 53 0.0 4.3 0.00 0.00 0.00 31 1017.4
20260506160012 71 17 0.0 4.3 0.00 0.00 0.00 30 1017.4
20260506155650 70 129 0.9 4.3 0.00 0.00 0.00 29 1017.4
20260506154729 70 30 0.0 2.6 0.00 0.00 0.00 30 1017.4
20260506153813 69 62 0.0 1.7 0.00 0.00 0.00 31 1017.3
20260506153447 69 58 0.0 2.6 0.00 0.00 0.00 31 1017.2
20260506153130 69 87 0.9 2.6 0.00 0.00 0.00 31 1017.2
20260506152813 69 5 0.9 2.6 0.00 0.00 0.00 30 1017.1
20260506152458 69 0 0.9 2.6 0.00 0.00 0.00 31 1017.1
20260506152139 68 74 0.9 2.6 0.00 0.00 0.00 32 1017.1
20260506151813 68 95 0.0 2.6 0.00 0.00 0.00 34 1017.1
20260506151456 68 105 0.0 2.6 0.00 0.00 0.00 34 1017.1
20260506150839 66 57 0.9 2.6 0.00 0.00 0.00 35 1017.1
20260506150516 66 0 0.9 2.6 0.00 0.00 0.00 35 1017.2
20260506150151 65 0 0.9 2.6 0.00 0.00 0.00 36 1017.1
20260506145829 65 0 0.9 2.6 0.00 0.00 0.00 38 1017.1
20260506145509 64 0 0.9 2.6 0.00 0.00 0.00 38 1017.0
20260506145150 62 0 0.9 2.6 0.00 0.00 0.00 38 1017.1
20260506144831 62 0 0.9 2.6 0.00 0.00 0.00 40 1017.1
20260506144507 61 0 0.9 2.6 0.00 0.00 0.00 41 1017.1
20260506144150 61 0 0.0 2.6 0.00 0.00 0.00 41 1017.0
20260506143828 60 0 0.0 2.6 0.00 0.00 0.00 42 1017.0
20260506143505 60 0 0.9 3.5 0.00 0.00 0.00 42 1016.9
20260506143147 59 0 0.9 3.5 0.00 0.00 0.00 43 1016.8
20260506142829 58 0 0.9 3.5 0.00 0.00 0.00 44 1016.7
20260506142513 58 0 0.9 3.5 0.00 0.00 0.00 44 1016.8
20260506142151 58 0 0.9 3.5 0.00 0.00 0.00 46 1016.8
20260506141832 57 0 0.9 3.5 0.00 0.00 0.00 46 1016.8
20260506141507 57 0 0.9 1.7 0.00 0.00 0.00 47 1016.7
20260506141150 56 0 0.0 1.7 0.00 0.00 0.00 48 1016.8
20260506140824 56 0 0.0 0.9 0.00 0.00 0.00 48 1016.7
20260506140506 56 0 0.0 0.9 0.00 0.00 0.00 50 1016.5
20260506140147 56 0 0.0 0.0 0.00 0.00 0.00 50 1016.6
20260506135825 55 0 0.0 1.7 0.00 0.00 0.00 51 1016.6
20260506135502 55 0 0.0 0.9 0.00 0.00 0.00 51 1016.4
20260506135140 55 0 0.0 0.9 0.00 0.00 0.00 52 1016.5
20260506134516 55 0 0.0 0.0 0.00 0.00 0.00 53 1016.3
20260506133859 54 0 0.0 0.0 0.00 0.00 0.00 52 1016.2
20260506133541 54 0 0.0 0.0 0.00 0.00 0.00 52 1016.2
20260506133223 54 0 0.0 0.0 0.00 0.00 0.00 51 1016.2
20260506132906 54 0 0.0 0.0 0.00 0.00 0.00 51 1016.1
20260506132543 54 0 0.0 0.0 0.00 0.00 0.00 52 1016.1
20260506132219 54 0 0.0 0.0 0.00 0.00 0.00 52 1016.0
20260506131857 54 0 0.0 0.9 0.00 0.00 0.00 52 1015.9
20260506131537 54 0 0.0 0.9 0.00 0.00 0.00 51 1015.9
20260506131220 55 36 0.0 0.9 0.00 0.00 0.00 50 1015.9
20260506130901 55 270 0.0 0.0 0.00 0.00 0.00 49 1015.9
20260506130246 55 270 0.0 0.0 0.00 0.00 0.00 49 1015.8
20260506125921 55 270 0.0 0.0 0.00 0.00 0.00 48 1015.8
20260506125004 55 270 0.0 0.0 0.00 0.00 0.00 48 1015.6
20260506124641 55 270 0.0 0.0 0.00 0.00 0.00 48 1015.6
20260506124325 55 269 0.0 1.7 0.00 0.00 0.00 48 1015.5
20260506124002 55 269 0.0 1.7 0.00 0.00 0.00 48 1015.4
20260506123646 56 269 0.0 0.9 0.00 0.00 0.00 48 1015.3
20260506123326 56 269 0.0 0.9 0.00 0.00 0.00 48 1015.3
20260506123008 56 269 0.0 0.0 0.00 0.00 0.00 48 1015.2
20260506122649 56 269 0.0 0.9 0.00 0.00 0.00 48 1015.3
20260506122329 56 286 0.0 0.0 0.00 0.00 0.00 48 1015.2
20260506122014 56 286 0.0 0.0 0.00 0.00 0.00 48 1015.2
20260506121355 56 286 0.0 1.7 0.00 0.00 0.00 47 1015.1
20260506121036 56 246 0.0 1.7 0.00 0.00 0.00 47 1015.0
20260506120718 56 217 0.0 1.7 0.00 0.00 0.00 47 1015.0
20260506120404 56 269 0.0 0.9 0.00 0.00 0.00 47 1015.0
20260506120048 56 332 0.0 1.7 0.00 0.00 0.00 47 1015.0
20260506115422 56 332 0.0 1.7 0.00 0.00 0.00 47 1015.0
20260506115057 56 180 0.0 0.9 0.00 0.00 0.00 47 1014.9
20260506114738 56 250 0.0 0.9 0.00 0.00 0.00 47 1015.0
20260506114422 56 178 0.0 0.9 0.00 0.00 0.00 47 1014.9
20260506114101 56 178 0.0 0.9 0.00 0.00 0.00 46 1014.7
20260506113746 56 311 0.0 0.0 0.00 0.00 0.00 46 1014.8
20260506113429 56 311 0.0 0.0 0.00 0.00 0.00 46 1014.7
20260506112805 57 311 0.0 0.0 0.00 0.00 0.00 45 1014.6
20260506112143 57 316 0.0 0.9 0.00 0.00 0.00 45 1014.7
20260506110922 57 317 0.0 0.9 0.00 0.00 0.00 45 1014.7
20260506110606 57 222 0.0 0.0 0.00 0.00 0.00 44 1014.7
20260506110244 57 222 0.0 1.7 0.00 0.00 0.00 44 1014.6
20260506105630 57 219 0.0 1.7 0.00 0.00 0.00 44 1014.5
20260506105305 57 212 0.0 1.7 0.00 0.00 0.00 44 1014.5
20260506104949 57 216 0.0 1.7 0.00 0.00 0.00 44 1014.5
20260506104630 57 215 0.0 1.7 0.00 0.00 0.00 44 1014.4
20260506104306 57 228 0.0 1.7 0.00 0.00 0.00 44 1014.4
20260506103948 57 236 0.0 1.7 0.00 0.00 0.00 44 1014.3
20260506103625 57 173 0.0 1.7 0.00 0.00 0.00 44 1014.2
20260506103307 57 307 0.0 1.7 0.00 0.00 0.00 44 1014.1
20260506102640 57 226 0.0 0.9 0.00 0.00 0.00 44 1014.1
20260506102317 57 226 0.0 0.9 0.00 0.00 0.00 44 1014.1
20260506101954 57 226 0.0 0.9 0.00 0.00 0.00 44 1014.1
20260506101632 57 226 0.0 0.0 0.00 0.00 0.00 44 1014.1
20260506101314 57 226 0.0 0.0 0.00 0.00 0.00 44 1014.1
20260506100957 57 226 0.0 0.0 0.00 0.00 0.00 44 1014.0
20260506100638 58 226 0.0 0.0 0.00 0.00 0.00 44 1014.0
20260506100319 58 225 0.0 0.0 0.00 0.00 0.00 44 1013.9
20260506100003 58 225 0.0 0.0 0.00 0.00 0.00 43 1013.8
20260506095645 58 225 0.0 0.0 0.00 0.00 0.00 43 1013.8
20260506095328 58 225 0.0 0.0 0.00 0.00 0.00 43 1013.7
20260506095012 58 225 0.0 0.9 0.00 0.00 0.00 43 1013.7
20260506094352 58 302 0.0 0.0 0.00 0.00 0.00 43 1013.6
20260506094026 58 302 0.0 0.0 0.00 0.00 0.00 43 1013.6
20260506093705 58 302 0.0 0.0 0.00 0.00 0.00 42 1013.6
20260506093345 59 303 0.0 0.0 0.00 0.00 0.00 42 1013.7
20260506092723 59 302 0.0 0.0 0.00 0.00 0.00 41 1013.7
20260506092402 59 241 0.0 0.0 0.00 0.00 0.00 41 1013.6
20260506092039 59 241 0.0 0.9 0.00 0.00 0.00 41 1013.6
20260506091719 59 241 0.0 0.9 0.00 0.00 0.00 40 1013.6
20260506091354 59 241 0.0 0.9 0.00 0.00 0.00 40 1013.6
20260506091033 59 241 0.0 0.0 0.00 0.00 0.00 40 1013.6
20260506090707 60 241 0.0 1.7 0.00 0.00 0.00 40 1013.6
20260506090342 60 240 0.0 1.7 0.00 0.00 0.00 39 1013.6
20260506085716 60 240 0.0 0.0 0.00 0.00 0.00 39 1013.5
20260506085401 60 240 0.0 0.9 0.00 0.00 0.00 39 1013.6
20260506085040 60 237 0.0 0.9 0.00 0.00 0.00 39 1013.6
20260506084424 60 180 0.0 0.0 0.00 0.00 0.00 39 1013.5
20260506084104 60 178 0.0 1.7 0.00 0.00 0.00 39 1013.5
20260506083745 60 213 0.0 2.6 0.00 0.00 0.00 39 1013.4
20260506083431 60 206 0.0 2.6 0.00 0.00 0.00 39 1013.4
20260506083112 61 170 0.0 2.6 0.00 0.00 0.00 39 1013.5
20260506082752 61 170 0.0 2.6 0.00 0.00 0.00 38 1013.5
20260506082435 61 170 0.0 2.6 0.00 0.00 0.00 38 1013.4
20260506081810 61 161 0.0 1.7 0.00 0.00 0.00 37 1013.3
20260506081147 61 267 0.0 0.0 0.00 0.00 0.00 37 1013.3
20260506080824 62 0 0.0 0.0 0.00 0.00 0.00 36 1013.5
20260506080158 62 0 0.0 1.7 0.00 0.00 0.00 36 1013.4
20260506073510 64 0 0.0 1.7 0.00 0.00 0.00 34 1013.3
20260506073145 64 0 0.0 1.7 0.00 0.00 0.00 34 1013.3
20260506072825 64 0 0.0 1.7 0.00 0.00 0.00 33 1013.3
20260506072504 64 0 0.0 1.7 0.00 0.00 0.00 33 1013.3
20260506072139 64 0 0.0 3.5 0.00 0.00 0.00 33 1013.3
20260506071519 65 0 0.9 3.5 0.00 0.00 0.00 33 1013.3
20260506071157 65 0 0.9 3.5 0.00 0.00 0.00 33 1013.3
20260506070532 65 0 0.9 3.5 0.00 0.00 0.00 33 1013.3
20260506070209 65 0 0.0 2.6 0.00 0.00 0.00 33 1013.3
20260506062305 66 0 3.5 8.7 0.00 0.00 0.00 32 1012.9
20260506061648 66 0 3.5 7.8 0.00 0.00 0.00 32 1012.8
20260506061325 67 0 3.5 7.0 0.00 0.00 0.00 32 1012.7
20260506061009 67 0 2.6 7.0 0.00 0.00 0.00 31 1012.8
20260506060653 67 0 2.6 8.7 0.00 0.00 0.00 31 1012.6
20260506060336 67 0 2.6 8.7 0.00 0.00 0.00 31 1012.6
20260506051144 68 0 4.3 11.3 0.00 0.00 0.00 29 1012.2
20260506050524 68 0 4.3 12.2 0.00 0.00 0.00 29 1012.1
20260506050206 69 0 4.3 12.2 0.00 0.00 0.00 29 1012.1
20260506044933 69 0 5.2 14.8 0.00 0.00 0.00 30 1012.1
20260506044610 69 0 5.2 14.8 0.00 0.00 0.00 30 1012.1
20260506044255 69 0 5.2 14.8 0.00 0.00 0.00 29 1012.0
20260506043936 69 0 5.2 13.9 0.00 0.00 0.00 30 1011.9
20260506043619 69 0 4.3 13.9 0.00 0.00 0.00 30 1011.9
20260506043302 69 0 4.3 13.9 0.00 0.00 0.00 30 1012.0
20260506042941 69 0 3.5 8.7 0.00 0.00 0.00 30 1011.9
20260506042620 69 0 3.5 8.7 0.00 0.00 0.00 30 1011.9
20260506042256 69 0 3.5 8.7 0.00 0.00 0.00 30 1011.8
20260506041933 69 0 3.5 8.7 0.00 0.00 0.00 30 1011.8
20260506041611 69 0 3.5 8.7 0.00 0.00 0.00 29 1011.8
20260506041256 69 0 2.6 8.7 0.00 0.00 0.00 29 1011.7
20260506040939 70 0 2.6 7.8 0.00 0.00 0.00 29 1011.7
20260506040616 70 0 2.6 7.8 0.00 0.00 0.00 29 1011.6
20260506040256 70 0 4.3 9.6 0.00 0.00 0.00 29 1011.5
20260506035933 70 0 3.5 9.6 0.00 0.00 0.00 29 1011.5
20260506035618 70 0 3.5 9.6 0.00 0.00 0.00 29 1011.4
20260506035301 70 0 3.5 9.6 0.00 0.00 0.00 29 1011.4
20260506034937 70 0 4.3 9.6 0.00 0.00 0.00 29 1011.3
20260506034619 70 0 3.5 9.6 0.00 0.00 0.00 29 1011.3
20260506034257 70 0 3.5 9.6 0.00 0.00 0.00 29 1011.1
20260506033631 70 0 2.6 9.6 0.00 0.00 0.00 29 1011.2
20260506033305 70 0 2.6 9.6 0.00 0.00 0.00 29 1011.0
20260506032946 70 0 3.5 9.6 0.00 0.00 0.00 29 1010.9
20260506032622 71 0 2.6 9.6 0.00 0.00 0.00 29 1010.9
20260506032305 71 0 2.6 7.0 0.00 0.00 0.00 28 1010.8
20260506031937 71 0 2.6 10.4 0.00 0.00 0.00 28 1010.7
20260506031623 71 0 2.6 10.4 0.00 0.00 0.00 28 1010.7
20260506031300 71 0 3.5 10.4 0.00 0.00 0.00 28 1010.6
20260506030944 71 0 4.3 10.4 0.00 0.00 0.00 28 1010.6
20260506030627 71 0 4.3 10.4 0.00 0.00 0.00 28 1010.5
20260506030310 71 0 3.5 10.4 0.00 0.00 0.00 28 1010.4
20260506025950 71 0 3.5 7.8 0.00 0.00 0.00 28 1010.4
20260506025635 72 0 3.5 7.8 0.00 0.00 0.00 28 1010.3
20260506025315 72 0 3.5 7.8 0.00 0.00 0.00 28 1010.4
20260506024953 72 0 2.6 7.8 0.00 0.00 0.00 27 1010.3
20260506024637 72 0 2.6 7.0 0.00 0.00 0.00 26 1010.2
20260506024312 72 0 2.6 7.8 0.00 0.00 0.00 26 1010.2
20260506023948 72 0 2.6 7.8 0.00 0.00 0.00 26 1010.1
20260506023632 72 0 2.6 7.8 0.00 0.00 0.00 25 1010.1
20260506023312 72 0 2.6 7.8 0.00 0.00 0.00 26 1010.1
20260506022950 72 0 2.6 7.8 0.00 0.00 0.00 25 1010.0
20260506022331 72 0 2.6 7.0 0.00 0.00 0.00 25 1009.9
20260506022015 72 0 3.5 8.7 0.00 0.00 0.00 25 1010.0
20260506021658 72 0 2.6 8.7 0.00 0.00 0.00 25 1009.9
20260506021333 72 0 2.6 8.7 0.00 0.00 0.00 24 1009.9
20260506020716 73 0 2.6 8.7 0.00 0.00 0.00 24 1009.8
20260506020359 73 0 3.5 8.7 0.00 0.00 0.00 24 1009.8
20260506020037 73 0 2.6 7.8 0.00 0.00 0.00 24 1009.8
20260506015712 73 0 2.6 7.0 0.00 0.00 0.00 24 1009.8
20260506015052 73 0 2.6 7.0 0.00 0.00 0.00 24 1009.7
20260506014727 73 0 2.6 9.6 0.00 0.00 0.00 24 1009.7
20260506014410 73 0 2.6 9.6 0.00 0.00 0.00 24 1009.8
20260506014048 73 0 2.6 9.6 0.00 0.00 0.00 23 1009.7
20260506013731 73 0 3.5 9.6 0.00 0.00 0.00 24 1009.8
20260506013414 73 0 3.5 9.6 0.00 0.00 0.00 23 1009.7
20260506012456 73 212 2.6 7.8 0.00 0.00 0.00 23 1009.7
20260506011536 74 176 3.5 7.8 0.00 0.00 0.00 22 1009.6
20260506011216 74 171 3.5 7.8 0.00 0.00 0.00 22 1009.6
20260506010855 74 252 3.5 7.8 0.00 0.00 0.00 22 1009.6
20260506010529 74 156 3.5 7.8 0.00 0.00 0.00 22 1009.6
20260506010215 74 178 3.5 9.6 0.00 0.00 0.00 21 1009.6
20260506005859 74 148 3.5 9.6 0.00 0.00 0.00 21 1009.6
20260506005242 74 209 3.5 10.4 0.00 0.00 0.00 21 1009.6
20260506004628 74 181 2.6 10.4 0.00 0.00 0.00 21 1009.5
20260506003706 74 198 2.6 10.4 0.00 0.00 0.00 21 1009.5
20260506003352 74 173 0.9 7.0 0.00 0.00 0.00 21 1009.4
20260506003029 74 202 0.9 6.1 0.00 0.00 0.00 20 1009.5
20260506002704 74 34 0.9 6.1 0.00 0.00 0.00 22 1009.5
20260506002339 74 71 1.7 9.6 0.00 0.00 0.00 22 1009.5
20260506002020 75 106 3.5 9.6 0.00 0.00 0.00 20 1009.4
20260506001704 75 146 4.3 9.6 0.00 0.00 0.00 21 1009.5
20260506001344 75 163 4.3 9.6 0.00 0.00 0.00 20 1009.5
20260506001018 75 169 3.5 9.6 0.00 0.00 0.00 20 1009.5
20260506000656 75 165 3.5 9.6 0.00 0.00 0.00 20 1009.5
20260506000331 76 147 2.6 8.7 0.00 0.00 0.00 19 1009.4
20260506000004 76 209 1.7 7.0 0.00 0.00 0.00 20 1009.3
20260505235641 76 251 1.7 7.0 0.00 0.00 0.00 20 1009.3
20260505235319 76 267 1.7 10.4 0.00 0.00 0.00 21 1009.3
20260505235002 75 254 3.5 10.4 0.00 0.00 0.00 20 1009.3
20260505234641 76 211 3.5 10.4 0.00 0.00 0.00 20 1009.2
20260505234316 75 171 3.5 10.4 0.00 0.00 0.00 20 1009.3
20260505234002 75 239 1.7 10.4 0.00 0.00 0.00 20 1009.2
20260505233644 75 163 1.7 10.4 0.00 0.00 0.00 20 1009.3
20260505233319 75 126 0.9 6.1 0.00 0.00 0.00 20 1009.3
20260505233004 75 207 1.7 6.1 0.00 0.00 0.00 20 1009.4
20260505232046 75 242 2.6 10.4 0.00 0.00 0.00 21 1009.3
20260505231727 75 180 3.5 10.4 0.00 0.00 0.00 20 1009.5
20260505231407 76 227 4.3 10.4 0.00 0.00 0.00 21 1009.5
20260505231042 76 149 5.2 10.4 0.00 0.00 0.00 22 1009.5
20260505230719 75 199 2.6 10.4 0.00 0.00 0.00 20 1009.5
20260505230400 76 165 2.6 9.6 0.00 0.00 0.00 19 1009.5
20260505230033 76 138 0.9 6.1 0.00 0.00 0.00 20 1009.5
20260505225717 77 34 1.7 8.7 0.00 0.00 0.00 19 1009.6
20260505225353 77 34 2.6 8.7 0.00 0.00 0.00 20 1009.7
20260505225038 77 339 2.6 8.7 0.00 0.00 0.00 19 1009.7
20260505224712 77 345 3.5 8.7 0.00 0.00 0.00 21 1009.8
20260505224349 77 86 2.6 8.7 0.00 0.00 0.00 22 1009.8
20260505224031 77 121 3.5 8.7 0.00 0.00 0.00 23 1009.9
20260505223708 76 107 1.7 7.0 0.00 0.00 0.00 21 1009.9
20260505223350 76 78 2.6 13.9 0.00 0.00 0.00 20 1009.9
20260505223029 75 128 2.6 13.9 0.00 0.00 0.00 23 1010.0
20260505222709 76 190 3.5 13.9 0.00 0.00 0.00 23 1010.0
20260505222046 76 169 6.1 13.9 0.00 0.00 0.00 23 1010.1
20260505221730 76 154 6.1 13.9 0.00 0.00 0.00 20 1010.1
20260505221408 76 118 3.5 10.4 0.00 0.00 0.00 21 1010.1
20260505221048 76 195 2.6 9.6 0.00 0.00 0.00 22 1010.1
20260505220727 76 209 1.7 8.7 0.00 0.00 0.00 20 1010.2
20260505220410 76 43 1.7 7.0 0.00 0.00 0.00 20 1010.3
20260505220055 76 106 0.9 7.0 0.00 0.00 0.00 23 1010.3
20260505215433 77 74 1.7 6.1 0.00 0.00 0.00 21 1010.5
20260505215116 78 66 2.6 6.1 0.00 0.00 0.00 24 1010.4
20260505214451 76 19 2.6 11.3 0.00 0.00 0.00 21 1010.5
20260505214129 76 71 3.5 11.3 0.00 0.00 0.00 22 1010.5
20260505213807 76 116 4.3 11.3 0.00 0.00 0.00 24 1010.5
20260505213448 77 58 5.2 11.3 0.00 0.00 0.00 22 1010.6
20260505213128 78 114 5.2 11.3 0.00 0.00 0.00 25 1010.7
20260505212810 77 117 4.3 9.6 0.00 0.00 0.00 26 1010.6
20260505212452 76 101 4.3 9.6 0.00 0.00 0.00 25 1010.7
20260505211834 76 103 3.5 13.0 0.00 0.00 0.00 24 1010.9
20260505211515 76 109 3.5 13.0 0.00 0.00 0.00 22 1010.9
20260505210852 77 106 4.3 13.0 0.00 0.00 0.00 25 1010.9
20260505205936 74 113 2.6 9.6 0.00 0.00 0.00 25 1011.0
20260505205621 74 234 4.3 11.3 0.00 0.00 0.00 24 1011.0
20260505205307 74 151 3.5 11.3 0.00 0.00 0.00 24 1011.0
20260505204949 74 148 3.5 11.3 0.00 0.00 0.00 27 1011.0
20260505204625 74 214 3.5 11.3 0.00 0.00 0.00 24 1011.1
20260505204309 74 163 3.5 11.3 0.00 0.00 0.00 24 1011.0
20260505203951 76 217 3.5 11.3 0.00 0.00 0.00 22 1011.0
20260505203629 75 115 1.7 10.4 0.00 0.00 0.00 27 1010.9
20260505203305 74 71 2.6 10.4 0.00 0.00 0.00 25 1011.1
20260505202946 74 21 3.5 10.4 0.00 0.00 0.00 26 1011.0
20260505202625 74 100 3.5 10.4 0.00 0.00 0.00 24 1011.0
20260505202300 74 106 4.3 10.4 0.00 0.00 0.00 24 1011.1
20260505201942 74 138 2.6 9.6 0.00 0.00 0.00 23 1011.1
20260505201619 74 180 4.3 10.4 0.00 0.00 0.00 26 1011.1
20260505201301 75 175 5.2 10.4 0.00 0.00 0.00 24 1011.1
20260505200940 76 101 5.2 10.4 0.00 0.00 0.00 25 1011.2
20260505200614 75 101 4.3 12.2 0.00 0.00 0.00 26 1011.2
20260505200250 75 100 3.5 12.2 0.00 0.00 0.00 26 1011.2
20260505195325 74 137 5.2 12.2 0.00 0.00 0.00 26 1011.5
20260505195010 73 113 4.3 12.2 0.00 0.00 0.00 27 1011.5
20260505194654 73 136 3.5 9.6 0.00 0.00 0.00 28 1011.4
20260505194328 73 126 4.3 9.6 0.00 0.00 0.00 28 1011.5
20260505194011 73 78 5.2 11.3 0.00 0.00 0.00 25 1011.5
20260505193053 74 130 5.2 11.3 0.00 0.00 0.00 27 1011.6
20260505192735 74 144 4.3 11.3 0.00 0.00 0.00 26 1011.7
20260505192409 74 177 4.3 11.3 0.00 0.00 0.00 32 1011.7
20260505192043 73 144 3.5 11.3 0.00 0.00 0.00 29 1011.6
20260505191724 73 128 4.3 11.3 0.00 0.00 0.00 29 1011.6
20260505191404 73 125 4.3 11.3 0.00 0.00 0.00 28 1011.6
20260505191049 73 92 5.2 11.3 0.00 0.00 0.00 30 1011.6
20260505190734 72 140 5.2 11.3 0.00 0.00 0.00 28 1011.7